AirNav   Everest Fuels
 
 397 users online  

4J1 Brantley County Airport
Nahunta, Georgia, USA

GOING TO NAHUNTA?


FAA INFORMATION EFFECTIVE 31 JANUARY 2019

Location

FAA Identifier: 4J1
Lat/Long: 31-12-21.9000N / 081-54-21.6000W
31-12.365000N / 081-54.360000W
31.2060833 / -81.9060000
(estimated)
Elevation: 84.8 ft. / 25.8 m (surveyed)
Variation: 06W (2010)
From city: 4 miles E of NAHUNTA, GA
Time zone: UTC -5 (UTC -4 during Daylight Saving Time)
Zip code: 31553

Airport Operations

Airport use: Open to the public
Control tower: no
ARTCC: JACKSONVILLE CENTER
FSS: MACON FLIGHT SERVICE STATION
NOTAMs facility: MCN (NOTAM-D service available)
Attendance: UNATNDD
Wind indicator: lighted
Segmented circle: yes
Lights: ACTVT MIRL RY 01/19 AND PAPI RY 01 & 19 - CTAF.
Beacon: white-green (lighted land airport)
Operates sunset to sunrise.

Airport Communications

CTAF: 122.9
  • APCH/DEP SVC PRVDD BY JACKSONVILLE ARTCC ON FREQS 127.575/269.025 (ALMA RCAG).

Nearby radio navigation aids

VOR radial/distance  VOR name  Freq  Var
SSIr296/25.4BRUNSWICK VORTAC109.8004W
AYSr096/33.6WAYCROSS VORTAC110.2000E
AMGr123/36.7ALMA VORTAC115.1000E

 
NDB name  Hdg/Dist  Freq  Var  ID
SLOVER187/20.834004WJES .--- . ...
BAXLEY147/39.237606WBHC -... .... -.-.

Airport Services

Parking: tiedowns
Airframe service: NONE
Powerplant service: NONE
Bottled oxygen: NONE
Bulk oxygen: NONE

Runway Information

Runway 1/19

Dimensions: 4000 x 75 ft. / 1219 x 23 m
Surface: asphalt, in good condition
Weight bearing capacity: 
Single wheel: 14.0
Runway edge lights: medium intensity
RUNWAY 1  RUNWAY 19
Latitude: 31-12.036240N31-12.692127N
Longitude: 081-54.401162W081-54.317205W
Elevation: 79.6 ft.81.0 ft.
Gradient: 0.9%0.9%
Traffic pattern: leftleft
Runway heading: 012 magnetic, 006 true192 magnetic, 186 true
Markings: nonprecision, in good conditionnonprecision, in good condition
Visual slope indicator: 2-light PAPI on left (3.00 degrees glide path)2-light PAPI on left (3.00 degrees glide path)
Touchdown point: yes, no lightsyes, no lights
Obstructions: 10 ft. brush, 201 ft. from runway, 240 ft. right of centerline63 ft. trees, 1334 ft. from runway, 43 ft. right of centerline, 18:1 slope to clear

Airport Ownership and Management from official FAA records

Ownership: Publicly-owned
Owner: BRANTLEY COUNTY
33 ALLEN RD, 117 BRANTLY STREET
NAHUNTA, GA 31553
Phone 912-462-5256
Manager: RENEE HERRIN
33 ALLEN RD, PO BOX 792
NAHUNTA, GA 31553
Phone (912) 462-5256

Airport Operational Statistics

Aircraft operations: avg 83/month *
50% transient general aviation
50% local general aviation
* for 12-month period ending 01 November 2017

Instrument Procedures

NOTE: All procedures below are presented as PDF files. If you need a reader for these files, you should download the free Adobe Reader.

NOT FOR NAVIGATION. Please procure official charts for flight.
FAA instrument procedures published for use from 31 January 2019 at 0901Z to 28 February 2019 at 0900Z.

 
IAPs - Instrument Approach Procedures
RNAV (GPS) Y RWY 01   download (224KB)
RNAV (GPS) Y RWY 19   download (211KB)
RNAV (GPS) Z RWY 01   download (192KB)
RNAV (GPS) Z RWY 19   download (210KB)
NOTE: Special Take-Off Minimums/Departure Procedures apply   download (189KB)

Other nearby airports with instrument procedures:

KJES - Jesup-Wayne County Airport (21 nm N)
KBQK - Brunswick Golden Isles Airport (23 nm E)
KAYS - Waycross-Ware County Airport (25 nm W)
09J - Jekyll Island Airport (26 nm E)
KSSI - McKinnon St Simons Island Airport (27 nm E)
 
Loc | Ops | Rwys | IFR | FBO | Links
Com | Nav | Svcs | Stats | Notes
Area around 4J1 (Brantley County Airport)
 
Road maps at: MapQuest Bing Google
 
Aerial photo
WARNING: Photo may not be current or correct
Aerial photo of 4J1 (Brantley County Airport)
Photo taken 24-Sep-2011
looking south-southwest.

Do you have a better or more recent aerial photo of Brantley County Airport that you would like to share? If so, please send us your photo.

 
Sectional chart

 
Airport distance calculator
Flying to Brantley County Airport? Find the distance to fly.

From to 4J1

Sunrise and sunset
Times for 20-Feb-2019
 Local
(UTC-5)
 Zulu
(UTC)
Morning civil twilight06:4111:41
Sunrise07:0512:05
Sunset18:1823:18
Evening civil twilight18:4223:42

Current date and time
Zulu (UTC)  20-Feb-2019 06:37:12
Local (UTC-5)  20-Feb-2019 01:37:12
 
METAR
KJES 
21nm N 
200601Z AUTO 06010KT 10SM OVC007 10/08 A3028 RMK AO2
KBQK 
23nm E 
200615Z AUTO 04017G21KT 10SM -RA OVC006 12/11 A3026 RMK AO2
KAYS 
25nm W 
200615Z AUTO 07009G14KT 10SM OVC008 10/08 A3024 RMK AO2 LTG DSNT NW T01000075
KSSI 
27nm E 
200553Z AUTO 03016G25KT 3SM RA BR BKN005 OVC016 13/12 A3024 RMK AO2 PK WND 02028/0513 SLP242 P0019 60055 T01280117 10128 20117 58015 $
KAMG 
36nm NW 
200553Z AUTO 07005KT 10SM OVC008 09/07 A3027 RMK AO2 RAB27E36 SLP248 P0000 60000 T00940067 10111 20089 56017 $
KBHC 
39nm NW 
200615Z AUTO 07008G14KT 10SM OVC008 07/07 A3027 RMK AO2 LTG DSNT NW
TAF
KSSI 
27nm E 
200540Z 2006/2106 03017G25KT 5SM -RA BR OVC005 TEMPO 2006/2010 2SM RA BR OVC003 FM201300 04011KT 3SM -DZ BR OVC004 FM201800 09006KT 4SM BR OVC004 FM202100 12006KT P6SM VCSH OVC007 FM210300 14006KT 3SM BR BKN004 OVC008
NOTAMs
Click for the latest NOTAMs
NOTAMs are issued by the DoD/FAA and will open in a separate window not controlled by AirNav.

 

 
 

Would you like to see your business listed on this page?

 If your business provides an interesting product or service to pilots, flight crews, aircraft, or users of the Brantley County Airport, you should consider listing it here.  To start the listing process, click on the button below
 
Add a business
 

Other Pages about Brantley County Airport

Update a link
 
Copyright © AirNav, LLC. All rights reserved. Privacy Policy  Contact